Volver al catálogo

STARLINK-30223

ActivoComunicacionesVLEO
NORAD 57603·PAYLOAD·🇺🇸 United States

Lanzado Aug 11, 2023 desde Cape Canaveral Space Force Station

Loading…

Próximos Pases (próximas 24 horas)

TLE

ActualizadoSource: CelesTrak SupGP

Época: Sep 14, 2026, 21:38 UTC

1 57603C 23119B   26257.90187500  .00008050  00000+0  43235-3 0  2578
2 57603  42.9969 120.5237 0011001 218.4402  45.3381 15.14089720    18

Sigue STARLINK-30223 en tiempo real con AllMySat

Download on the App Store